N1LTP Weather Reports


time (UTC)temp
C
wind
direction
speed
KPH
gust
KPH
rain 1hr
cm
rain 24hr
cm
rain mn
cm
humidity
%
barometer
mb
20260503054519 8 292 1.6 6.4 0.00 0.00 0.00 74 1008.5
20260503053018 8 304 1.6 8.0 0.00 0.00 0.00 76 1008.6
20260503051513 8 304 3.2 9.7 0.00 0.00 0.00 78 1008.6
20260503050021 8 281 3.2 14.5 0.00 0.00 0.00 82 1008.7
20260503044509 8 286 1.6 6.4 0.00 0.00 0.00 90 1008.9
20260503043007 8 317 0.0 6.4 0.00 0.00 0.00 91 1009.0
20260503041505 8 312 1.6 4.8 0.00 0.00 0.00 91 1009.3
20260503040003 8 55 0.0 4.8 0.00 0.00 0.00 91 1009.6
20260503034600 8 59 0.0 0.0 0.00 0.00 0.00 91 1009.4
20260503033058 8 59 0.0 3.2 0.00 0.00 0.00 91 1009.5
20260503031606 8 79 0.0 1.6 0.00 0.00 0.00 91 1009.6
20260503030058 8 79 0.0 0.0 0.00 0.00 0.00 90 1009.4
20260503024556 8 79 0.0 0.0 0.00 0.00 0.00 90 1009.6
20260503023055 8 79 0.0 0.0 0.00 0.00 0.00 89 1009.8
20260503021554 9 79 0.0 0.0 0.00 0.00 0.00 89 1009.6
20260503020055 9 79 0.0 0.0 0.00 0.00 0.00 89 1009.8
20260503014608 9 79 0.0 0.0 0.00 0.00 0.00 89 1010.0
20260503013053 9 79 0.0 0.0 0.00 0.00 0.00 88 1010.0
20260503011557 9 79 0.0 0.0 0.00 0.00 0.00 88 1009.9
20260503010052 9 80 0.0 0.0 0.00 0.00 0.00 88 1009.9
20260503004552 9 80 0.0 0.0 0.00 0.00 0.00 88 1009.9
20260503003051 10 80 0.0 0.0 0.00 0.00 0.00 87 1009.7
20260503001601 10 80 0.0 0.0 0.00 0.00 0.00 87 1009.7
20260503000050 10 80 0.0 0.0 0.00 0.00 0.00 86 1009.7
20260502234552 10 80 0.0 0.0 0.00 0.00 0.00 85 1009.7
20260502233053 10 80 0.0 0.0 0.00 0.00 0.00 85 1009.8
20260502231548 10 80 0.0 0.0 0.00 0.00 0.00 84 1009.8
20260502230047 10 80 0.0 1.6 0.00 0.00 0.00 84 1009.9
20260502224547 10 26 0.0 3.2 0.00 0.00 0.00 84 1009.9
20260502223046 10 26 0.0 3.2 0.00 0.00 0.00 84 1009.7
20260502221545 10 103 0.0 3.2 0.00 0.00 0.00 82 1009.6
20260502220045 11 103 0.0 1.6 0.00 0.00 0.00 82 1009.6
20260502214544 11 105 0.0 1.6 0.00 0.00 0.00 82 1009.6
20260502213043 11 105 0.0 3.2 0.00 0.00 0.00 81 1009.7
20260502211544 11 106 0.0 4.8 0.00 0.00 0.00 80 1009.7
20260502210058 11 124 0.0 6.4 0.00 0.00 0.00 79 1009.6
20260502204547 11 17 1.6 4.8 0.00 0.00 0.00 78 1009.6
20260502203040 11 151 0.0 9.7 0.00 0.00 0.00 79 1009.8
20260502201549 11 152 3.2 9.7 0.00 0.00 0.00 79 1009.7
20260502200039 11 121 1.6 6.4 0.00 0.00 0.00 79 1009.9
20260502194536 11 172 0.0 11.3 0.00 0.00 0.00 78 1010.2
20260502193035 11 138 1.6 9.7 0.00 0.00 0.00 77 1010.4
20260502191544 11 248 3.2 11.3 0.00 0.00 0.00 73 1010.6
20260502190038 12 251 1.6 12.9 0.00 0.00 0.00 72 1010.6
20260502184545 12 140 1.6 6.4 0.00 0.00 0.00 68 1010.5
20260502183040 11 153 0.0 4.8 0.00 0.00 0.00 77 1010.5
20260502181540 12 44 0.0 6.4 0.00 0.00 0.00 79 1010.7
20260502163025 15 141 3.2 12.9 0.00 0.00 0.00 59 1010.5
20260502161523 14 44 1.6 9.7 0.00 0.00 0.00 61 1010.6
20260502151515 13 331 0.0 3.2 0.00 0.00 0.00 71 1011.2
20260502123051 10 360 0.0 4.8 0.00 0.00 0.00 79 1011.9
20260502121552 10 268 1.6 6.4 0.00 0.00 0.00 80 1011.8
20260502114543 8 80 0.0 3.2 0.00 0.00 0.00 83 1011.5
20260502113037 8 80 0.0 3.2 0.00 0.00 0.00 84 1011.4
20260502111533 8 80 0.0 1.6 0.00 0.00 0.00 85 1011.6
20260502110029 7 80 0.0 1.6 0.00 0.00 0.00 86 1011.4
20260502104527 7 80 0.0 1.6 0.00 0.00 0.00 87 1011.3
20260502103029 6 80 0.0 3.2 0.00 0.00 0.00 87 1011.2
20260502101535 6 79 0.0 6.4 0.00 0.00 0.00 88 1011.3
20260502091517 5 190 0.0 0.0 0.00 0.00 0.00 88 1011.1
20260502071509 6 190 0.0 0.0 0.00 0.00 0.00 84 1011.0
20260502070008 6 190 0.0 0.0 0.00 0.00 0.00 84 1011.0
20260502064508 6 190 0.0 0.0 0.00 0.00 0.00 85 1011.1
20260502063017 5 190 0.0 0.0 0.00 0.00 0.00 84 1011.2
20260502061504 5 190 0.0 0.0 0.00 0.00 0.00 84 1011.2
20260502060003 5 190 0.0 0.0 0.00 0.00 0.00 82 1011.2